This is the latest recevied weather packets stored in our database for station/object KQ7A. If no packets are shown the sender has not sent any weather packets the latest 10 day(s).
| Time | Temp. | Humidity | Pressure | Rain* | Wind** | Luminosity | Snow |
|---|---|---|---|---|---|---|---|
| 1777762356 | 21.11° C | 29% | 1014.6 hPa | 0 mm | - | 202 W/m² | - |
| 1777762052 | 21.11° C | 31% | 1014.8 hPa | 0 mm | - | 227 W/m² | - |
| 1777761749 | 21.11° C | 29% | 1014.5 hPa | 0 mm | - | 255 W/m² | - |
| 1777761446 | 21.11° C | 31% | 1014.8 hPa | 0 mm | - | 235 W/m² | - |
| 1777761144 | 21.11° C | 29% | 1014.8 hPa | 0 mm | - | 223 W/m² | - |
| 1777760842 | 21.11° C | 32% | 1014.8 hPa | 0 mm | - | 235 W/m² | - |
| 1777760538 | 22.22° C | 29% | 1014.8 hPa | 0 mm | - | 293 W/m² | - |
| 1777760234 | 21.67° C | 29% | 1014.6 hPa | 0 mm | - | 442 W/m² | - |
| 1777759931 | 22.22° C | 30% | 1014.8 hPa | 0 mm | - | 469 W/m² | - |
| 1777759627 | 21.67° C | 27% | 1015 hPa | 0 mm | - | 459 W/m² | - |
| 1777759324 | 21.67° C | 29% | 1015.1 hPa | 0 mm | - | 343 W/m² | - |
| 1777759021 | 21.67° C | 29% | 1015.2 hPa | 0 mm | - | 355 W/m² | - |
| 1777758717 | 22.22° C | 29% | 1015.3 hPa | 0 mm | - | 377 W/m² | - |
| 1777758415 | 22.78° C | 29% | 1015.1 hPa | 0 mm | - | 452 W/m² | - |
| 1777758112 | 22.78° C | 26% | 1015.3 hPa | 0 mm | - | 601 W/m² | - |
| 1777757809 | 22.78° C | 29% | 1015.4 hPa | 0 mm | - | 589 W/m² | - |
| 1777757506 | 22.22° C | 30% | 1015.3 hPa | 0 mm | - | 659 W/m² | - |
| 1777757205 | 22.22° C | 29% | 1015.4 hPa | 0 mm | - | 674 W/m² | - |
| 1777756903 | 21.67° C | 27% | 1015.6 hPa | 0 mm | - | 465 W/m² | - |
| 1777756598 | 22.22° C | 28% | 1015.5 hPa | 0 mm | - | 592 W/m² | - |
| 1777756295 | 21.67° C | 29% | 1015.8 hPa | 0 mm | - | 450 W/m² | - |
| 1777755993 | 21.67° C | 29% | 1015.6 hPa | 0 mm | - | 338 W/m² | - |
| 1777755690 | 21.67° C | 27% | 1016 hPa | 0 mm | - | 340 W/m² | - |
| 1777755387 | 21.67° C | 27% | 1016 hPa | 0 mm | - | 465 W/m² | - |
| 1777755083 | 21.67° C | 29% | 1015.9 hPa | 0 mm | - | 468 W/m² | - |
* Rain latest hour (hover to see other rain measurements)
** Current wind speed in m/s (hover to see current wind gust speed)